Location: Unspecified
(40.2472°N, 0.0000°E)
Time: 03:47:36
(UTC+00:00)

Hubble Space Telescope - Visible Passes

Search period start: 04 April 2026 00:00
Search period end: 14 April 2026 00:00
Orbit: 475 x 478 km, 28.5° (Epoch: 28 March)

Date Brightness Start Highest point End Pass type
(mag) Time Alt. Az. Time Alt. Az. Time Alt. Az.
10 Apr 2.8 04:58:17 10° SSW 05:00:14 14° S 05:02:09 10° SSE visible
11 Apr 2.7 04:27:32 11° SSW 04:29:07 14° S 04:31:03 10° SSE visible
12 Apr 2.7 03:58:06 14° S 03:58:06 14° S 03:59:56 10° SSE visible
13 Apr 3.2 03:28:41 10° SSE 03:28:41 10° SSE 03:28:48 10° SSE visible
